User: anonymous   Login
Location: Melbourne
(37.8170°S, 144.9670°E)
Time: 20:14:18
(UTC+11:00)
Language:

Explorer 11/Cluster Stage 4 - Orbit

View from above orbital plane
View from above orbital plane
View from above satellite
View from above satellite

Ground track
Ground track

The orbit data is extracted from the following two-line orbital elements,

1   107U 61013A   17327.56498151 +.00000986 +00000-0 +11276-3 0  9991
2   107 028.7886 070.8009 0548547 172.0215 188.9504 14.08451943834003
Epoch (UTC): 23 November 2017 13:33:34
Eccentricity: 0.0548547
inclination: 28.7886°
perigee height: 467 km
apogee height: 1262 km
right ascension of ascending node: 70.8009°
argument of perigee: 172.0215°
revolutions per day: 14.08451943
mean anomaly at epoch: 188.9504°
orbit number at epoch: 83400

The dashed part of the orbit path shows where the satellite is in the earth's shadow,  

DLR